This demonstration page uses our WeatherBlox Daily Observations layout. Learn more.

Left ArrowRight Arrow

Hourly Observations for November 16, 2020

Temp ( °F °C ) Dew Point ( °F °C ) Humidity (%) Winds ( mph kmh ) Pressure ( in mb ) Visibility ( mi km ) Precip ( " mm )
12:15 am 00:15 Clear 41 4.8 13 -10.6 32 32 WSW 12 19 30.11 1020 10 16 N/A
12:35 am 00:35 Clear 40 4.5 13 -10.6 33 33 WSW 10 17 30.11 1020 10 16 N/A
12:55 am 00:55 Clear 40 4.4 13 -10.6 33 33 WSW 10 17 30.12 1020 10 16 N/A
1:15 am 01:15 Clear 39 4.1 13 -10.7 33 33 WSW 12 19 30.12 1020 10 16 N/A
1:35 am 01:35 Clear 39 4 13 -10.6 34 34 WSW 12 19 30.11 1020 10 16 N/A
1:55 am 01:55 Clear 38 3.4 13 -10.5 36 36 WSW 9 15 30.12 1020 10 16 N/A
2:15 am 02:15 Clear 38 3.5 14 -10.1 37 37 W 14 22 30.13 1020 10 16 N/A
2:35 am 02:35 Clear 39 4 15 -9.5 37 37 W 15 24 30.13 1020 10 16 N/A
2:55 am 02:55 Clear 37 2.6 16 -9.1 42 42 W 10 17 30.14 1021 10 16 N/A
3:15 am 03:15 Clear 35 1.6 17 -8.6 47 47 W 9 15 30.15 1021 10 16 N/A
3:35 am 03:35 Clear 34 1 17 -8.1 51 51 W 7 11 30.16 1021 10 16 N/A
3:55 am 03:55 Clear 35 1.5 19 -7.5 52 52 W 9 15 30.16 1021 10 16 N/A
4:15 am 04:15 Clear 34 1.1 19 -7.4 53 53 W 9 15 30.15 1021 10 16 N/A
4:35 am 04:35 Clear 35 1.5 20 -6.7 55 55 W 8 13 30.16 1021 10 16 N/A
4:55 am 04:55 Clear 34 1.1 20 -6.5 57 57 W 8 13 30.16 1021 10 16 N/A
5:15 am 05:15 Clear 34 1.3 21 -6.1 58 58 W 8 13 30.17 1022 10 16 N/A
5:35 am 05:35 Clear 34 1.3 21 -6 59 59 W 8 13 30.17 1022 10 16 N/A
5:55 am 05:55 Clear 34 1 21 -6 60 60 W 8 13 30.19 1022 10 16 N/A
6:15 am 06:15 Clear 35 1.4 23 -5.1 62 62 W 9 15 30.19 1022 10 16 N/A
6:35 am 06:35 Clear 37 2.6 25 -3.9 63 63 W 10 17 30.19 1022 10 16 N/A
6:55 am 06:55 Clear 38 3.5 27 -3 63 63 W 9 15 30.19 1022 10 16 N/A
7:15 am 07:15 Clear 35 1.8 26 -3.6 68 68 W 7 11 30.21 1023 10 16 N/A
7:35 am 07:35 Sunny 36 2 26 -3.2 69 69 W 7 11 30.23 1024 10 16 N/A
7:55 am 07:55 Sunny 35 1.7 26 -3.3 70 70 WNW 6 9 30.24 1024 10 16 N/A
8:15 am 08:15 Sunny 35 1.9 27 -2.8 71 71 WNW 8 13 30.26 1025 10 16 N/A
8:35 am 08:35 Sunny 39 3.8 29 -1.9 67 67 WNW 8 13 30.26 1025 10 16 N/A
8:55 am 08:55 Sunny 43 6.1 30 -1 61 61 NW 10 17 30.26 1025 10 16 N/A
9:15 am 09:15 Sunny 45 7.4 30 -1 56 56 NW 12 19 30.26 1025 10 16 N/A
9:35 am 09:35 Sunny 48 8.7 29 -1.5 49 49 NW 7 11 30.25 1025 10 16 N/A
9:55 am 09:55 Sunny 49 9.7 29 -1.6 46 46 NW 9 15 30.26 1025 10 16 N/A
10:15 am 10:15 Sunny 51 10.4 28 -2.1 42 42 NNW 10 17 30.26 1025 10 16 N/A
10:35 am 10:35 Sunny 52 11.2 28 -2.3 39 39 NNW 13 20 30.26 1025 10 16 N/A
10:55 am 10:55 Sunny 53 11.7 28 -2.5 37 37 NNW 12 19 30.27 1025 10 16 N/A
11:15 am 11:15 Sunny 55 12.6 28 -2.3 36 36 N 13 20 30.26 1025 10 16 N/A
11:35 am 11:35 Sunny 56 13.6 27 -2.6 33 33 N 8 13 30.25 1024 10 16 N/A
11:55 am 11:55 Sunny 58 14.2 26 -3.3 30 30 N 12 19 30.26 1025 10 16 N/A
12:15 pm 12:15 Sunny 59 15 26 -3.6 28 28 N 8 13 30.24 1024 10 16 N/A
12:35 pm 12:35 Sunny 59 15 25 -4 27 27 NNW 10 17 30.24 1024 10 16 N/A
12:55 pm 12:55 Sunny 59 15.2 23 -5.2 24 24 N 12 19 30.24 1024 10 16 N/A
1:15 pm 13:15 Sunny 60 15.5 23 -5.1 24 24 NNW 9 15 30.23 1024 10 16 N/A
1:35 pm 13:35 Sunny 60 15.4 22 -5.4 24 24 N 12 19 30.24 1024 10 16 N/A
1:55 pm 13:55 Sunny 60 15.5 22 -5.5 23 23 NNW 10 17 30.23 1024 10 16 N/A
2:15 pm 14:15 Sunny 60 15.5 22 -5.5 23 23 NW 10 17 30.23 1024 10 16 N/A
2:35 pm 14:35 Sunny 60 15.5 22 -5.6 23 23 WNW 6 9 30.23 1024 10 16 N/A
2:55 pm 14:55 Sunny 60 15.3 22 -5.6 23 23 NW 8 13 30.24 1024 10 16 N/A
3:15 pm 15:15 Sunny 59 15.1 22 -5.6 24 24 NW 6 9 30.23 1024 10 16 N/A
3:35 pm 15:35 Sunny 59 15.2 22 -5.6 24 24 NNW 8 13 30.24 1024 10 16 N/A
3:55 pm 15:55 Sunny 59 15 22 -5.6 24 24 NW 8 13 30.25 1024 10 16 N/A
4:15 pm 16:15 Sunny 58 14.4 22 -5.5 25 25 NW 5 7 30.25 1025 10 16 N/A
4:35 pm 16:35 Sunny 56 13.4 22 -5.5 27 27 WNW 3 6 30.25 1024 10 16 N/A
4:55 pm 16:55 Sunny 54 12.3 22 -5.8 28 28 W 3 6 30.27 1025 10 16 N/A
5:15 pm 17:15 Sunny 52 11 22 -5.6 31 31 N N/A 30.28 1026 10 16 N/A
5:35 pm 17:35 Clear 49 9.3 22 -5.7 34 34 N N/A 30.31 1026 10 16 N/A
5:55 pm 17:55 Clear 47 8.4 22 -5.7 37 37 N N/A 30.32 1027 10 16 N/A
6:15 pm 18:15 Clear 45 7.2 21 -6.2 38 38 N N/A 30.34 1027 10 16 N/A
6:35 pm 18:35 Clear 44 6.5 22 -5.6 42 42 N N/A 30.35 1028 10 16 N/A
6:55 pm 18:55 Hazy 39 4 20 -6.4 47 47 NNE 5 7 30.40 1029 5 8 N/A
7:15 pm 19:15 Clear 40 4.5 21 -6.2 46 46 N N/A 30.39 1029 10 16 N/A
7:35 pm 19:35 Clear 39 3.9 21 -6.1 48 48 N N/A 30.40 1029 10 16 N/A
7:55 pm 19:55 Clear 39 3.7 21 -6 50 50 NE 6 9 30.40 1029 10 16 N/A
8:15 pm 20:15 Clear 38 3.6 22 -5.6 51 51 E 5 7 30.40 1030 10 16 N/A
8:35 pm 20:35 Clear 39 4 22 -5.5 50 50 N N/A 30.40 1029 10 16 N/A
8:55 pm 20:55 Clear 39 3.8 22 -5.4 51 51 N N/A 30.43 1030 10 16 N/A
9:15 pm 21:15 Clear 35 1.5 22 -5.6 60 60 N N/A 30.45 1031 10 16 N/A
9:35 pm 21:35 Clear 34 1.1 22 -5.6 61 61 N N/A 30.46 1031 10 16 N/A
9:55 pm 21:55 Clear 34 1 22 -5.6 62 62 N N/A 30.48 1032 10 16 N/A
10:15 pm 22:15 Clear 33 0.5 22 -5.8 63 63 N N/A 30.48 1032 10 16 N/A
10:35 pm 22:35 Partly Cloudy 33 0.6 22 -5.6 64 64 N N/A 30.49 1033 10 16 N/A
10:55 pm 22:55 Mostly Cloudy 34 1 22 -5.4 63 63 N N/A 30.49 1032 10 16 N/A
11:15 pm 23:15 Cloudy 36 2.1 24 -4.7 61 61 SSE 3 6 30.48 1032 10 16 N/A
11:35 pm 23:35 Cloudy 35 1.8 23 -4.9 61 61 N N/A 30.48 1032 10 16 N/A
11:55 pm 23:55 Cloudy 38 3.2 23 -4.8 56 56 SSE 5 7 30.47 1032 10 16 N/A

Powered by AerisWeather